Covington, KY

7:01 PM EDT on August 18, 2017 (GMT -0400)
Cincinnati-Northern KY International

Weather History for KCVG - November, 2014

Change the Weather History Date:

Sunday, November 30, 2014

  Actual Average Record
Temperature  
Mean Temperature 62 °F 39 °F  
Max Temperature 67 °F 47 °F 70 °F (1934)
Min Temperature 57 °F 31 °F 1 °F (1958)
Degree Days  
Heating Degree Days 3 26  
Month to date heating degree days 782 598  
Since 1 July heating degree days 1138 960  
Cooling Degree Days 0 0  
Month to date cooling degree days 0 0  
Year to date cooling degree days 1077 1121  
Growing Degree Days 10 (Base 50)    
Moisture  
Dew Point 50 °F    
Average Humidity 62    
Maximum Humidity 72    
Minimum Humidity 52    
Precipitation  
Precipitation 0.10 in 0.11 in 1.55 in (2010)
Month to date precipitation 1.77 3.43  
Year to date precipitation 38.69 39.15  
Snow  
Snow 0.00 in 0.00 in 5.00 in (1974)
Month to date snowfall 5.1 0.4  
Since 1 July snowfall 5.1 0.8  
Since 1 September snowfall 5.1 0.8  
Snow Depth 0.00 in    
Sea Level Pressure  
Sea Level Pressure 29.95 in    
Wind  
Wind Speed 12 mph (SSW)    
Max Wind Speed 23 mph    
Max Gust Speed 33 mph    
Visibility 10 miles    
Events Rain    
T = Trace of Precipitation, MM = Missing Value Source: NWS Daily Summary

Daily Weather History Graph

Daily Weather History Graph

Search for Another Location

Airport or City:

Trip Planner

Search our weather history database for the weather conditions in past years. The results will help you decide how hot, cold, wet, or windy it might be!

Date:

Astronomy

Nov. 30, 2014 Rise Set
Actual Time 7:37 AM EST 5:16 PM EST
Civil Twilight 7:08 AM EST 5:46 PM EST
Nautical Twilight 6:35 AM EST 6:19 PM EST
Astronomical Twilight 6:02 AM EST 6:51 PM EST
Moon 1:43 PM EST (11/30) 1:10 AM EST (11/30)
Length of Visible Light 10h 38m
Length of Day
9h 39m
Waxing Gibbous, 64% of the Moon is Illuminated
Nov 30
Waxing Gibbous
Dec 6
Full
Dec 14
Last Quarter
Dec 21
New
Dec 28
First Quarter

Hourly Weather History & Observations

Time (EST) Temp. Dew Point Humidity Pressure Visibility Wind Dir Wind Speed Gust Speed Precip Events Conditions
12:52 AM 57.9 °F 46.0 °F 65% 29.88 in 10.0 mi SSW 17.3 mph 27.6 mph N/A   Overcast
1:41 AM 57.2 °F 46.4 °F 67% 29.89 in 10.0 mi SSW 15.0 mph 21.9 mph N/A   Overcast
1:52 AM 57.9 °F 46.9 °F 67% 29.88 in 10.0 mi SSW 17.3 mph 24.2 mph N/A   Overcast
2:52 AM 57.9 °F 46.9 °F 67% 29.89 in 10.0 mi South 15.0 mph - N/A   Overcast
3:52 AM 57.9 °F 48.0 °F 70% 29.89 in 10.0 mi SSW 10.4 mph - N/A   Overcast
4:52 AM 59.0 °F 48.9 °F 69% 29.90 in 10.0 mi SSW 11.5 mph 20.7 mph N/A   Overcast
5:52 AM 57.9 °F 48.9 °F 72% 29.91 in 10.0 mi South 11.5 mph 21.9 mph N/A   Overcast
6:52 AM 57.0 °F 48.9 °F 74% 29.91 in 10.0 mi SSW 8.1 mph 18.4 mph N/A   Overcast
7:52 AM 59.0 °F 48.9 °F 69% 29.92 in 10.0 mi SSW 13.8 mph 21.9 mph N/A   Overcast
8:52 AM 60.1 °F 48.9 °F 67% 29.94 in 10.0 mi SSW 12.7 mph 20.7 mph N/A   Overcast
9:52 AM 61.0 °F 50.0 °F 67% 29.94 in 10.0 mi SSW 13.8 mph 19.6 mph N/A   Overcast
10:52 AM 63.0 °F 50.0 °F 63% 29.96 in 10.0 mi SW 12.7 mph 21.9 mph N/A   Overcast
11:52 AM 64.0 °F 51.1 °F 63% 29.94 in 10.0 mi SW 13.8 mph 21.9 mph N/A   Overcast
12:52 PM 64.9 °F 51.1 °F 61% 29.91 in 10.0 mi SW 11.5 mph 25.3 mph N/A   Overcast
1:52 PM 66.0 °F 50.0 °F 56% 29.90 in 10.0 mi SSW 15.0 mph 21.9 mph N/A   Overcast
2:52 PM 66.9 °F 50.0 °F 54% 29.91 in 10.0 mi SW 9.2 mph 26.5 mph N/A   Overcast
3:52 PM 66.9 °F 48.9 °F 52% 29.93 in 10.0 mi SW 13.8 mph 26.5 mph N/A   Overcast
4:52 PM 66.0 °F 48.9 °F 54% 29.95 in 10.0 mi SW 9.2 mph - N/A   Overcast
5:52 PM 66.0 °F 50.0 °F 56% 29.98 in 10.0 mi SSW 10.4 mph 17.3 mph N/A   Overcast
6:52 PM 64.9 °F 50.0 °F 58% 30.00 in 10.0 mi SSW 9.2 mph - N/A   Overcast
7:52 PM 64.9 °F 51.1 °F 61% 30.01 in 10.0 mi SSW 9.2 mph - 0.00 in   Overcast
8:52 PM 61.0 °F 53.1 °F 75% 30.03 in 10.0 mi SSW 9.2 mph - 0.01 in Rain Light Rain
9:52 PM 62.1 °F 52.0 °F 70% 30.05 in 10.0 mi SSW 10.4 mph - 0.00 in   Overcast
10:52 PM 63.0 °F 52.0 °F 67% 30.05 in 10.0 mi SSW 10.4 mph - N/A   Overcast
11:49 PM 60.8 °F 53.6 °F 77% 30.10 in 2.5 mi NW 13.8 mph 21.9 mph 0.02 in Rain Heavy Rain
11:52 PM 60.1 °F 54.0 °F 80% 30.09 in 2.5 mi NW 15.0 mph 21.9 mph 0.04 in Rain Heavy Rain